Time,TemperatureF,DewpointF,PressureIn,WindDirection,WindDirectionDegrees,WindSpeedMPH,WindSpeedGustMPH,Humidity,HourlyPrecipIn,Conditions,Clouds,dailyrainin,SolarRadiationWatts/m^2,SoftwareType,DateUTC
2013-03-09 00:03:00,40.0,38.0,-100.00,WNW,298,0.0,2.0,91,0.00,,,0.00,0.000000,,2013-03-09 05:03:00,
2013-03-09 00:32:00,38.0,36.0,-100.00,WNW,288,1.0,1.0,92,0.00,,,0.00,0.000000,,2013-03-09 05:32:00,
2013-03-09 00:43:00,38.0,36.0,-100.00,WNW,288,1.0,1.0,92,0.00,,,0.00,0.000000,,2013-03-09 05:43:00,
2013-03-09 00:53:00,38.0,36.0,-100.00,WNW,288,1.0,1.0,92,0.00,,,0.00,0.000000,,2013-03-09 05:53:00,
2013-03-09 01:02:00,38.0,36.0,-100.00,WNW,288,1.0,1.0,92,0.00,,,0.00,0.000000,,2013-03-09 06:02:00,
2013-03-09 01:32:00,36.0,34.0,-100.00,North,2,0.0,0.0,92,0.00,,,0.00,0.000000,,2013-03-09 06:32:00,
2013-03-09 01:42:00,36.0,34.0,-100.00,North,2,0.0,0.0,92,0.00,,,0.00,0.000000,,2013-03-09 06:42:00,
2013-03-09 01:52:00,36.0,34.0,-100.00,North,2,0.0,0.0,92,0.00,,,0.00,0.000000,,2013-03-09 06:52:00,
2013-03-09 02:01:00,36.0,34.0,-100.00,North,2,0.0,0.0,92,0.00,,,0.00,0.000000,,2013-03-09 07:01:00,
2013-03-09 02:32:00,35.0,33.0,-100.00,North,0,0.0,2.0,92,0.00,,,0.00,0.000000,,2013-03-09 07:32:00,
2013-03-09 02:42:00,35.0,33.0,-100.00,North,0,0.0,2.0,92,0.00,,,0.00,0.000000,,2013-03-09 07:42:00,
2013-03-09 02:52:00,35.0,33.0,-100.00,North,0,0.0,2.0,92,0.00,,,0.00,0.000000,,2013-03-09 07:52:00,
2013-03-09 03:01:00,35.0,33.0,-100.00,North,0,0.0,2.0,92,0.00,,,0.00,0.000000,,2013-03-09 08:01:00,
2013-03-09 03:32:00,34.0,32.0,-100.00,NE,47,0.0,1.0,92,0.00,,,0.00,0.000000,,2013-03-09 08:32:00,
2013-03-09 03:42:00,34.0,32.0,-100.00,NE,47,0.0,1.0,92,0.00,,,0.00,0.000000,,2013-03-09 08:42:00,
2013-03-09 03:52:00,34.0,32.0,-100.00,NE,47,0.0,1.0,92,0.00,,,0.00,0.000000,,2013-03-09 08:52:00,
2013-03-09 04:02:00,34.0,32.0,-100.00,NE,47,0.0,1.0,92,0.00,,,0.00,0.000000,,2013-03-09 09:02:00,
2013-03-09 04:32:00,33.0,31.0,-100.00,WNW,283,0.0,0.0,92,0.00,,,0.00,0.000000,,2013-03-09 09:32:00,
2013-03-09 04:42:00,33.0,31.0,-100.00,WNW,283,0.0,0.0,92,0.00,,,0.00,0.000000,,2013-03-09 09:42:00,
2013-03-09 04:52:00,33.0,31.0,-100.00,WNW,283,0.0,0.0,92,0.00,,,0.00,0.000000,,2013-03-09 09:52:00,
2013-03-09 05:01:00,33.0,31.0,-100.00,WNW,283,0.0,0.0,92,0.00,,,0.00,0.000000,,2013-03-09 10:01:00,
2013-03-09 05:32:00,33.0,31.0,-100.00,West,261,1.0,1.0,92,0.00,,,0.00,0.000000,,2013-03-09 10:32:00,
2013-03-09 05:42:00,33.0,31.0,-100.00,West,261,1.0,1.0,92,0.00,,,0.00,0.000000,,2013-03-09 10:42:00,
2013-03-09 05:52:00,33.0,31.0,-100.00,West,261,1.0,1.0,92,0.00,,,0.00,0.000000,,2013-03-09 10:52:00,
2013-03-09 06:01:00,33.0,31.0,-100.00,West,261,1.0,1.0,92,0.00,,,0.00,0.000000,,2013-03-09 11:01:00,
2013-03-09 06:32:00,32.0,30.0,-100.00,NW,311,0.0,2.0,92,0.00,,,0.00,0.000000,,2013-03-09 11:32:00,
2013-03-09 06:42:00,32.0,30.0,-100.00,NW,311,0.0,2.0,92,0.00,,,0.00,0.000000,,2013-03-09 11:42:00,
2013-03-09 06:52:00,32.0,30.0,-100.00,NW,311,0.0,2.0,92,0.00,,,0.00,0.000000,,2013-03-09 11:52:00,
2013-03-09 07:02:00,32.0,30.0,-100.00,NW,311,0.0,2.0,92,0.00,,,0.00,0.000000,,2013-03-09 12:02:00,
2013-03-09 07:32:00,32.0,30.0,-100.00,WNW,301,1.0,2.0,92,0.00,,,0.00,4.000000,,2013-03-09 12:32:00,
2013-03-09 07:42:00,32.0,30.0,-100.00,WNW,301,1.0,2.0,92,0.00,,,0.00,4.000000,,2013-03-09 12:42:00,
2013-03-09 07:52:00,32.0,30.0,-100.00,WNW,301,1.0,2.0,92,0.00,,,0.00,4.000000,,2013-03-09 12:52:00,
2013-03-09 08:02:00,32.0,30.0,-100.00,WNW,301,1.0,2.0,92,0.00,,,0.00,4.000000,,2013-03-09 13:02:00,
2013-03-09 08:32:00,42.0,40.0,-100.00,NW,308,1.0,2.0,92,0.00,,,0.00,114.000000,,2013-03-09 13:32:00,
2013-03-09 08:42:00,42.0,40.0,-100.00,NW,308,1.0,2.0,92,0.00,,,0.00,114.000000,,2013-03-09 13:42:00,
2013-03-09 08:52:00,42.0,40.0,-100.00,NW,308,1.0,2.0,92,0.00,,,0.00,114.000000,,2013-03-09 13:52:00,
2013-03-09 09:01:00,42.0,40.0,-100.00,NW,308,1.0,2.0,92,0.00,,,0.00,114.000000,,2013-03-09 14:01:00,
2013-03-09 09:32:00,53.0,45.0,-100.00,NE,56,3.0,6.0,74,0.00,,,0.00,338.000000,,2013-03-09 14:32:00,
2013-03-09 09:42:00,53.0,45.0,-100.00,NE,56,3.0,6.0,74,0.00,,,0.00,338.000000,,2013-03-09 14:42:00,
2013-03-09 09:52:00,53.0,45.0,-100.00,NE,56,3.0,6.0,74,0.00,,,0.00,338.000000,,2013-03-09 14:52:00,
2013-03-09 10:02:00,53.0,45.0,-100.00,NE,56,3.0,6.0,74,0.00,,,0.00,338.000000,,2013-03-09 15:02:00,
2013-03-09 10:32:00,60.0,42.0,-100.00,ENE,74,5.0,11.0,52,0.00,,,0.00,571.000000,,2013-03-09 15:32:00,
2013-03-09 10:42:00,60.0,42.0,-100.00,ENE,74,5.0,11.0,52,0.00,,,0.00,571.000000,,2013-03-09 15:42:00,
2013-03-09 10:52:00,60.0,42.0,-100.00,ENE,74,5.0,11.0,52,0.00,,,0.00,571.000000,,2013-03-09 15:52:00,
2013-03-09 11:01:00,60.0,42.0,-100.00,ENE,74,5.0,11.0,52,0.00,,,0.00,571.000000,,2013-03-09 16:01:00,
2013-03-09 11:32:00,62.0,36.0,-100.00,East,97,6.0,12.0,38,0.00,,,0.00,739.000000,,2013-03-09 16:32:00,
2013-03-09 11:42:00,62.0,36.0,-100.00,East,97,6.0,12.0,38,0.00,,,0.00,739.000000,,2013-03-09 16:42:00,
2013-03-09 11:52:00,62.0,36.0,-100.00,East,97,6.0,12.0,38,0.00,,,0.00,739.000000,,2013-03-09 16:52:00,
2013-03-09 12:01:00,62.0,36.0,-100.00,East,97,6.0,12.0,38,0.00,,,0.00,739.000000,,2013-03-09 17:01:00,
2013-03-09 12:32:00,64.0,39.0,-100.00,ENE,77,5.0,11.0,40,0.00,,,0.00,891.000000,,2013-03-09 17:32:00,
2013-03-09 12:42:00,64.0,39.0,-100.00,ENE,77,5.0,11.0,40,0.00,,,0.00,891.000000,,2013-03-09 17:42:00,
2013-03-09 12:52:00,64.0,39.0,-100.00,ENE,77,5.0,11.0,40,0.00,,,0.00,891.000000,,2013-03-09 17:52:00,
2013-03-09 13:02:00,64.0,39.0,-100.00,ENE,77,5.0,11.0,40,0.00,,,0.00,891.000000,,2013-03-09 18:02:00,
2013-03-09 13:32:00,64.0,39.0,-100.00,ENE,74,5.0,11.0,39,0.00,,,0.00,930.000000,,2013-03-09 18:32:00,
2013-03-09 13:42:00,64.0,39.0,-100.00,ENE,74,5.0,11.0,39,0.00,,,0.00,930.000000,,2013-03-09 18:42:00,
2013-03-09 13:52:00,64.0,39.0,-100.00,ENE,74,5.0,11.0,39,0.00,,,0.00,930.000000,,2013-03-09 18:52:00,
2013-03-09 14:02:00,64.0,39.0,-100.00,ENE,74,5.0,11.0,39,0.00,,,0.00,930.000000,,2013-03-09 19:02:00,
2013-03-09 14:32:00,65.0,41.0,-100.00,ESE,108,6.0,11.0,42,0.00,,,0.00,916.000000,,2013-03-09 19:32:00,
2013-03-09 14:42:00,65.0,41.0,-100.00,ESE,108,6.0,11.0,42,0.00,,,0.00,916.000000,,2013-03-09 19:42:00,
2013-03-09 14:52:00,65.0,41.0,-100.00,ESE,108,6.0,11.0,42,0.00,,,0.00,916.000000,,2013-03-09 19:52:00,
2013-03-09 15:02:00,65.0,41.0,-100.00,ESE,108,6.0,11.0,42,0.00,,,0.00,916.000000,,2013-03-09 20:02:00,
2013-03-09 15:32:00,64.0,40.0,-100.00,ESE,115,6.0,12.0,42,0.00,,,0.00,804.000000,,2013-03-09 20:32:00,
2013-03-09 15:42:00,64.0,40.0,-100.00,ESE,115,6.0,12.0,42,0.00,,,0.00,804.000000,,2013-03-09 20:42:00,
2013-03-09 15:52:00,64.0,40.0,-100.00,ESE,115,6.0,12.0,42,0.00,,,0.00,804.000000,,2013-03-09 20:52:00,
2013-03-09 16:02:00,64.0,40.0,-100.00,ESE,115,6.0,12.0,42,0.00,,,0.00,804.000000,,2013-03-09 21:02:00,
2013-03-09 16:32:00,62.0,34.0,-100.00,ESE,110,6.0,13.0,35,0.00,,,0.00,628.000000,,2013-03-09 21:32:00,
2013-03-09 16:42:00,62.0,34.0,-100.00,ESE,110,6.0,13.0,35,0.00,,,0.00,628.000000,,2013-03-09 21:42:00,
2013-03-09 16:52:00,62.0,34.0,-100.00,ESE,110,6.0,13.0,35,0.00,,,0.00,628.000000,,2013-03-09 21:52:00,
2013-03-09 17:01:00,62.0,34.0,-100.00,ESE,110,6.0,13.0,35,0.00,,,0.00,628.000000,,2013-03-09 22:01:00,
2013-03-09 17:32:00,60.0,32.0,-100.00,ESE,107,6.0,10.0,35,0.00,,,0.00,353.000000,,2013-03-09 22:32:00,
2013-03-09 17:42:00,60.0,32.0,-100.00,ESE,107,6.0,10.0,35,0.00,,,0.00,353.000000,,2013-03-09 22:42:00,
2013-03-09 17:52:00,60.0,32.0,-100.00,ESE,107,6.0,10.0,35,0.00,,,0.00,353.000000,,2013-03-09 22:52:00,
2013-03-09 18:01:00,60.0,32.0,-100.00,ESE,107,6.0,10.0,35,0.00,,,0.00,353.000000,,2013-03-09 23:01:00,
2013-03-09 18:22:00,56.0,30.0,-100.00,East,99,3.0,11.0,37,0.00,,,0.00,107.000000,,2013-03-09 23:22:00,
2013-03-09 18:32:00,56.0,30.0,-100.00,East,99,3.0,11.0,37,0.00,,,0.00,107.000000,,2013-03-09 23:32:00,
2013-03-09 18:42:00,56.0,30.0,-100.00,East,99,3.0,11.0,37,0.00,,,0.00,107.000000,,2013-03-09 23:42:00,
2013-03-09 18:52:00,56.0,30.0,-100.00,East,99,3.0,11.0,37,0.00,,,0.00,107.000000,,2013-03-09 23:52:00,
2013-03-09 19:02:00,56.0,30.0,-100.00,East,99,3.0,11.0,37,0.00,,,0.00,107.000000,,2013-03-10 00:02:00,
2013-03-09 19:32:00,52.0,34.0,-100.00,East,100,2.0,8.0,51,0.00,,,0.00,8.000000,,2013-03-10 00:32:00,
2013-03-09 19:43:00,52.0,34.0,-100.00,East,100,2.0,8.0,51,0.00,,,0.00,8.000000,,2013-03-10 00:43:00,
2013-03-09 19:52:00,52.0,34.0,-100.00,East,100,2.0,8.0,51,0.00,,,0.00,8.000000,,2013-03-10 00:52:00,
2013-03-09 20:01:00,52.0,34.0,-100.00,East,100,2.0,8.0,51,0.00,,,0.00,8.000000,,2013-03-10 01:01:00,
2013-03-09 20:22:00,50.0,40.0,-100.00,ESE,121,2.0,5.0,69,0.00,,,-99.99,0.000000,,2013-03-10 01:22:00,
2013-03-09 20:32:00,50.0,40.0,-100.00,ESE,121,2.0,5.0,69,0.00,,,-99.99,0.000000,,2013-03-10 01:32:00,
2013-03-09 20:42:00,50.0,40.0,-100.00,ESE,121,2.0,5.0,69,0.00,,,-99.99,0.000000,,2013-03-10 01:42:00,
2013-03-09 20:52:00,50.0,40.0,-100.00,ESE,121,2.0,5.0,69,0.00,,,-99.99,0.000000,,2013-03-10 01:52:00,
2013-03-09 21:01:00,50.0,40.0,-100.00,ESE,121,2.0,5.0,69,0.00,,,-99.99,0.000000,,2013-03-10 02:01:00,
2013-03-09 21:32:00,49.0,43.0,-100.00,East,90,2.0,5.0,80,0.00,,,-99.99,0.000000,,2013-03-10 02:32:00,
2013-03-09 21:42:00,49.0,43.0,-100.00,East,90,2.0,5.0,80,0.00,,,-99.99,0.000000,,2013-03-10 02:42:00,
2013-03-09 21:52:00,49.0,43.0,-100.00,East,90,2.0,5.0,80,0.00,,,-99.99,0.000000,,2013-03-10 02:52:00,
2013-03-09 22:02:00,49.0,43.0,-100.00,East,90,2.0,5.0,80,0.00,,,-99.99,0.000000,,2013-03-10 03:02:00,
2013-03-09 22:22:00,49.0,45.0,-100.00,East,97,3.0,5.0,86,0.00,,,0.00,0.000000,,2013-03-10 03:22:00,
2013-03-09 22:32:00,49.0,45.0,-100.00,East,97,3.0,5.0,86,0.00,,,0.00,0.000000,,2013-03-10 03:32:00,
2013-03-09 22:42:00,49.0,45.0,-100.00,East,97,3.0,5.0,86,0.00,,,0.00,0.000000,,2013-03-10 03:42:00,
2013-03-09 22:52:00,49.0,45.0,-100.00,East,97,3.0,5.0,86,0.00,,,0.00,0.000000,,2013-03-10 03:52:00,
2013-03-09 23:01:00,49.0,45.0,-100.00,East,97,3.0,5.0,86,0.00,,,0.00,0.000000,,2013-03-10 04:01:00,
2013-03-09 23:32:00,46.0,43.0,-100.00,East,91,1.0,5.0,89,0.00,,,0.00,0.000000,,2013-03-10 04:32:00,
2013-03-09 23:42:00,46.0,43.0,-100.00,East,91,1.0,5.0,89,0.00,,,0.00,0.000000,,2013-03-10 04:42:00,
2013-03-09 23:52:00,46.0,43.0,-100.00,East,91,1.0,5.0,89,0.00,,,0.00,0.000000,,2013-03-10 04:52:00,